User: anonymous   Login
Location: Solon
(41.3849°N, 81.4081°W)
Time: 13:16:56
(UTC-04:00)
Language:

CZ-2C R/B - Orbit

View from above orbital plane
View from above orbital plane
View from above satellite
View from above satellite

Ground track
Ground track

The orbit data is extracted from the following two-line orbital elements,

1 28480U 04046B   16269.22278163  .00000033  00000-0  28477-4 0  9999
2 28480  98.1904  16.5626 0140868 286.6446 129.7168 14.25607704616489
Epoch (UTC): 25 September 2016 05:20:48
Eccentricity: 0.0140868
inclination: 98.1904°
perigee height: 705 km
apogee height: 907 km
right ascension of ascending node: 16.5626°
argument of perigee: 286.6446°
revolutions per day: 14.25607704
mean anomaly at epoch: 129.7168°
orbit number at epoch: 61648

The dashed part of the orbit path shows where the satellite is in the earth's shadow,  

DLR